CW0811 Weather Reports


Display with metric or nautical units.
time (UTC)temp
F
wind
direction
speed
MPH
gust
MPH
rain 1hr
in
rain 24hr
in
rain mn
in
humidity
%
barometer
mb
20260502163045 55 337 2.0 10.0 0.00 0.03 0.03 71 1010.2
20260502161545 56 222 2.0 11.0 0.00 0.03 0.03 69 1010.0
20260502151556 55 196 1.0 4.0 0.00 0.03 0.03 69 1010.6
20260502123041 50 88 1.0 7.0 0.00 0.03 0.03 89 1011.1
20260502121540 49 171 1.0 5.0 0.00 0.03 0.03 90 1011.3
20260502114547 48 0 0.0 4.0 0.02 0.03 0.03 91 1011.4
20260502113045 48 134 1.0 4.0 0.02 0.03 0.03 90 1011.5
20260502111548 47 0 1.0 3.0 0.01 0.02 0.02 90 1011.2
20260502110049 48 86 0.0 4.0 0.01 0.02 0.02 90 1011.4
20260502104553 48 0 0.0 0.0 0.00 0.01 0.01 90 1011.6
20260502103051 48 0 0.0 0.0 0.01 0.01 0.01 90 1011.4
20260502101605 48 0 0.0 0.0 0.01 0.01 0.01 89 1010.7
20260502070043 50 232 0.0 2.0 0.00 0.00 0.00 79 1010.4
20260502064544 50 0 0.0 3.0 0.00 0.00 0.00 77 1010.4
20260502063040 50 196 0.0 3.0 0.00 0.00 0.00 75 1010.5
20260502061547 50 0 0.0 4.0 0.00 0.00 0.00 75 1010.5
20260502060045 50 0 0.0 2.0 0.00 0.00 0.00 75 1010.9
20260502054544 51 0 0.0 3.0 0.00 0.00 0.00 73 1010.6
20260502053048 51 192 0.0 2.0 0.00 0.00 0.00 72 1010.6
20260502051554 51 0 0.0 3.0 0.00 0.00 0.00 71 1010.7
20260502050056 52 186 0.0 4.0 0.00 0.00 0.00 70 1010.7
20260502044543 52 0 0.0 4.0 0.00 0.00 0.00 69 1010.9
20260502043044 52 0 0.0 4.0 0.00 0.00 0.00 68 1010.8
20260502041542 52 0 0.0 2.0 0.00 0.00 0.00 68 1010.8
20260502040048 52 0 0.0 2.0 0.00 0.00 0.00 68 1010.8
20260502034548 52 211 0.0 3.0 0.00 0.00 0.00 68 1010.8
20260502033052 53 0 0.0 2.0 0.00 0.00 0.00 66 1010.9
20260502031545 52 213 0.0 2.0 0.00 0.00 0.00 66 1011.0
20260502030042 53 0 0.0 1.0 0.00 0.00 0.00 65 1010.9
20260502024541 53 214 0.0 2.0 0.00 0.00 0.00 64 1010.9
20260502023040 54 315 0.0 2.0 0.00 0.00 0.00 63 1011.0
20260502021545 54 0 0.0 5.0 0.00 0.00 0.00 62 1010.8
20260502020045 55 0 0.0 3.0 0.00 0.00 0.00 61 1010.9
20260502014544 55 176 0.0 3.0 0.00 0.00 0.00 59 1010.8
20260502013051 55 235 0.0 6.0 0.00 0.00 0.00 60 1010.7
20260502011557 55 228 2.0 8.0 0.00 0.00 0.00 58 1010.4
20260502010047 56 323 2.0 9.0 0.00 0.00 0.00 56 1010.5
20260502004557 56 165 2.0 6.0 0.00 0.00 0.00 51 1010.2
20260502003042 57 163 3.0 9.0 0.00 0.00 0.00 45 1010.0
20260502001541 58 184 0.0 5.0 0.00 0.00 0.00 44 1009.9
20260502000046 58 184 1.0 4.0 0.00 0.00 0.00 46 1009.9
20260501234542 59 200 1.0 6.0 0.00 0.00 0.00 42 1009.6
20260501233041 60 0 0.0 1.0 0.00 0.00 0.00 42 1009.1
20260501231551 60 0 0.0 1.0 0.00 0.00 0.00 40 1009.0
20260501230042 61 0 0.0 1.0 0.00 0.00 0.00 37 1009.0
20260501224542 61 0 0.0 1.0 0.00 0.00 0.00 38 1009.1
20260501223042 61 0 0.0 4.0 0.00 0.00 0.00 39 1008.9
20260501221605 62 78 0.0 2.0 0.00 0.00 0.00 38 1008.8
20260501220050 63 307 0.0 2.0 0.00 0.00 0.00 35 1008.8
20260501214542 63 0 0.0 2.0 0.00 0.00 0.00 35 1009.1
20260501213050 64 254 2.0 5.0 0.00 0.00 0.00 34 1009.0
20260501211548 63 252 0.0 3.0 0.00 0.00 0.00 37 1009.1
20260501210048 65 241 1.0 5.0 0.00 0.00 0.00 32 1009.1
20260501204545 64 190 2.0 4.0 0.00 0.00 0.00 33 1008.8
20260501203043 65 269 2.0 7.0 0.00 0.00 0.00 32 1008.9
20260501201542 64 308 1.0 6.0 0.00 0.00 0.00 34 1009.0
20260501200051 64 158 1.0 7.0 0.00 0.00 0.00 32 1008.9
20260501194547 65 120 1.0 4.0 0.00 0.00 0.00 33 1009.0
20260501193048 63 12 2.0 6.0 0.00 0.00 0.00 36 1009.0
20260501191545 64 292 2.0 6.0 0.00 0.00 0.00 31 1009.2
20260501190057 63 267 2.0 8.0 0.00 0.00 0.00 33 1009.3
20260501184543 62 231 1.0 8.0 0.00 0.00 0.00 34 1009.5
20260501183041 63 244 1.0 9.0 0.00 0.00 0.00 41 1009.5
20260501181540 63 158 2.0 7.0 0.00 0.00 0.00 32 1009.6
20260501180041 61 101 3.0 8.0 0.00 0.00 0.00 36 1009.6
20260501174543 63 57 3.0 8.0 0.00 0.00 0.00 35 1009.6
20260501173041 62 340 2.0 8.0 0.00 0.00 0.00 33 1009.8
20260501171541 62 244 2.0 10.0 0.00 0.00 0.00 38 1009.8